Cedar Bluff, VA

7:23 AM EDT on August 24, 2016 (GMT -0400)
Tazewell County

Weather History for KJFZ - May, 2014

Change the Weather History Date:

Tuesday, May 27, 2014

  Actual Average (KBLF) Record (KBLF)
Temperature  
Mean Temperature 72 °F 65 °F  
Max Temperature 78 °F 74 °F 86 °F (2012)
Min Temperature 65 °F 56 °F 31 °F (1961)
Degree Days  
Heating Degree Days 0 3  
Month to date heating degree days 127  
Since 1 July heating degree days 4557  
Cooling Degree Days 6 3  
Month to date cooling degree days 50  
Year to date cooling degree days 78  
Growing Degree Days 22 (Base 50)    
Moisture  
Dew Point 63 °F    
Average Humidity 79    
Maximum Humidity 92    
Minimum Humidity 60    
Precipitation  
Precipitation 0.16 in 0.15 in 1.61 in (1991)
Month to date precipitation 3.70  
Year to date precipitation 16.21  
Snow  
Snow 0.00 in - - ()
Month to date snowfall  
Since 1 July snowfall  
Snow Depth -    
Sea Level Pressure  
Sea Level Pressure 30.16 in    
Wind  
Wind Speed 4 mph (WSW)    
Max Wind Speed 9 mph    
Max Gust Speed -    
Visibility 9 miles    
Events Rain , Thunderstorm    
T = Trace of Precipitation, MM = Missing Value Source: NWS Daily Summary

Daily Weather History Graph

Daily Weather History Graph

Search for Another Location

Airport or City:

Trip Planner

Search our weather history database for the weather conditions in past years. The results will help you decide how hot, cold, wet, or windy it might be!

Date:

Astronomy

May. 27, 2014 Rise Set
Actual Time 6:11 AM EDT 8:38 PM EDT
Civil Twilight 5:41 AM EDT 9:08 PM EDT
Nautical Twilight 5:04 AM EDT 9:45 PM EDT
Astronomical Twilight 4:23 AM EDT 10:26 PM EDT
Moon 5:30 AM EDT (5/27) 7:41 PM EDT (5/27)
Length of Visible Light 15h 26m
Length of Day
14h 26m
Waning Crescent, 1% of the Moon is Illuminated
May 27
Waning Crescent
May 28
New
Jun 5
First Quarter
Jun 13
Full
Jun 19
Last Quarter

Hourly Weather History & Observations

Time (EDT) Temp. Dew Point Humidity Pressure Visibility Wind Dir Wind Speed Gust Speed Precip Events Conditions
12:15 AM 70.7 °F 60.8 °F 71% 30.19 in 10.0 mi WSW 4.6 mph - N/A   Clear
12:35 AM 70.2 °F 60.8 °F 72% 30.19 in 10.0 mi West 3.5 mph - N/A   Scattered Clouds
12:55 AM 70.2 °F 61.0 °F 73% 30.19 in 10.0 mi WSW 9.2 mph - N/A   Mostly Cloudy
1:15 AM 70.2 °F 60.8 °F 72% 30.19 in 10.0 mi WSW 5.8 mph - N/A   Scattered Clouds
1:35 AM 69.4 °F 60.8 °F 74% 30.19 in 10.0 mi WSW 5.8 mph - N/A   Clear
2:15 AM 68.9 °F 61.7 °F 78% 30.19 in 10.0 mi WSW 4.6 mph - N/A   Clear
2:35 AM 68.4 °F 61.9 °F 80% 30.19 in 10.0 mi WSW 5.8 mph - N/A   Clear
2:55 AM 68.2 °F 62.1 °F 81% 30.19 in 10.0 mi WSW 4.6 mph - N/A   Clear
3:15 AM 68.2 °F 62.6 °F 82% 30.18 in 10.0 mi SW 3.5 mph - N/A   Clear
3:35 AM 68.0 °F 62.6 °F 83% 30.18 in 10.0 mi WSW 5.8 mph - N/A   Clear
3:55 AM 67.6 °F 62.6 °F 84% 30.18 in 10.0 mi WSW 4.6 mph - N/A   Clear
4:15 AM 67.5 °F 62.6 °F 84% 30.18 in 10.0 mi WSW 4.6 mph - N/A   Clear
4:35 AM 67.1 °F 62.6 °F 85% 30.18 in 10.0 mi WSW 4.6 mph - N/A   Clear
4:55 AM 67.3 °F 62.6 °F 85% 30.18 in 10.0 mi SW 4.6 mph - N/A   Clear
5:15 AM 67.1 °F 62.2 °F 84% 30.17 in 10.0 mi SW 4.6 mph - N/A   Clear
5:35 AM 66.9 °F 62.4 °F 85% 30.18 in 10.0 mi WSW 4.6 mph - N/A   Scattered Clouds
5:55 AM 66.9 °F 62.1 °F 84% 30.17 in 10.0 mi WSW 4.6 mph - N/A   Clear
6:15 AM 67.1 °F 62.1 °F 84% 30.18 in 10.0 mi WSW 4.6 mph - N/A   Mostly Cloudy
6:35 AM 66.7 °F 61.7 °F 84% 30.17 in 10.0 mi Calm Calm - N/A   Scattered Clouds
6:55 AM 65.5 °F 62.2 °F 89% 30.18 in 7.0 mi SW 3.5 mph - N/A   Mostly Cloudy
7:15 AM 65.8 °F 62.2 °F 88% 30.18 in 10.0 mi Calm Calm - N/A   Overcast
7:35 AM 65.8 °F 62.4 °F 89% 30.18 in 7.0 mi Calm Calm - N/A   Overcast
7:55 AM 65.8 °F 62.6 °F 89% 30.18 in 7.0 mi Calm Calm - N/A   Overcast
8:15 AM 66.6 °F 62.8 °F 88% 30.18 in 10.0 mi Calm Calm - N/A   Overcast
8:35 AM 65.5 °F 62.8 °F 91% 30.19 in 2.5 mi NNW 3.5 mph - N/A   Overcast
8:55 AM 66.6 °F 63.7 °F 90% 30.19 in 4.0 mi West 5.8 mph - N/A   Overcast
9:15 AM 68.0 °F 64.0 °F 87% 30.20 in 7.0 mi West 5.8 mph - N/A Rain Light Rain
9:35 AM 66.6 °F 63.7 °F 90% 30.21 in 5.0 mi West 5.8 mph - 0.01 in Rain Rain
9:55 AM 66.4 °F 63.9 °F 92% 30.21 in 1.8 mi Calm Calm - 0.08 in Rain Rain
10:15 AM 66.6 °F 64.0 °F 92% 30.21 in 5.0 mi WSW 3.5 mph - 0.01 in Rain Rain
10:35 AM 67.1 °F 64.4 °F 91% 30.21 in 4.0 mi Calm Calm - 0.02 in Rain Light Rain
10:55 AM 67.5 °F 64.9 °F 92% 30.21 in 3.0 mi Calm Calm - 0.02 in Rain Rain
11:15 AM 67.6 °F 64.4 °F 89% 30.20 in 7.0 mi Calm Calm - N/A Rain Light Rain
11:35 AM 67.1 °F 64.4 °F 91% 30.21 in 7.0 mi West 4.6 mph - 0.01 in Rain Rain
11:55 AM 66.9 °F 64.4 °F 92% 30.21 in 3.0 mi NW 3.5 mph - 0.04 in Rain Rain
12:15 PM 67.1 °F 64.6 °F 92% 30.21 in 5.0 mi West 4.6 mph - N/A Rain Rain
12:35 PM 67.5 °F 63.9 °F 88% 30.21 in 10.0 mi Calm Calm - 0.01 in Rain Light Rain
12:55 PM 68.2 °F 65.5 °F 91% 30.19 in 5.0 mi Calm Calm - 0.02 in   Overcast
1:15 PM 68.7 °F 65.1 °F 88% 30.18 in 10.0 mi Calm Calm - N/A   Overcast
1:35 PM 70.2 °F 64.8 °F 83% 30.18 in 10.0 mi Calm Calm - N/A   Scattered Clouds
1:55 PM 72.3 °F 63.1 °F 73% 30.17 in 10.0 mi Calm Calm - N/A   Clear
2:15 PM 73.9 °F 65.5 °F 75% 30.16 in 10.0 mi SE 3.5 mph - N/A   Clear
2:35 PM 75.2 °F 66.2 °F 73% 30.15 in 10.0 mi Calm Calm - N/A   Scattered Clouds
2:55 PM 75.9 °F 65.1 °F 69% 30.14 in 10.0 mi West 6.9 mph - N/A   Mostly Cloudy
3:15 PM 77.0 °F 65.3 °F 67% 30.13 in 10.0 mi WSW 3.5 mph - N/A   Mostly Cloudy
3:55 PM 76.6 °F 64.8 °F 67% 30.11 in 10.0 mi SW 5.8 mph - N/A   Scattered Clouds
4:15 PM 78.4 °F 64.9 °F 63% 30.11 in 10.0 mi WNW 8.1 mph - N/A   Clear
4:35 PM 77.2 °F 63.9 °F 63% 30.11 in 10.0 mi West 3.5 mph - N/A   Scattered Clouds
4:55 PM 77.2 °F 62.4 °F 60% 30.12 in 10.0 mi West 8.1 mph - N/A   Scattered Clouds
5:15 PM 78.1 °F 63.9 °F 61% 30.11 in 10.0 mi WSW 5.8 mph - N/A   Clear
5:35 PM 78.1 °F 63.9 °F 61% 30.11 in 10.0 mi West 6.9 mph - N/A Thunderstorm Scattered Clouds
5:55 PM 77.0 °F 62.6 °F 61% 30.11 in 10.0 mi West 4.6 mph - N/A   Clear
6:15 PM 77.0 °F 63.1 °F 62% 30.10 in 10.0 mi West 3.5 mph - N/A Thunderstorm Clear
6:35 PM 76.8 °F 64.0 °F 65% 30.11 in 10.0 mi West 5.8 mph - N/A Thunderstorm Thunderstorm
7:15 PM 73.9 °F 64.4 °F 72% 30.13 in 10.0 mi North 8.1 mph - N/A Thunderstorm Mostly Cloudy
7:35 PM 71.1 °F 57.9 °F 63% 30.14 in 10.0 mi NNW 4.6 mph - N/A Thunderstorm Overcast
7:55 PM 67.8 °F 59.4 °F 74% 30.13 in 10.0 mi NNW 4.6 mph - N/A Rain , Thunderstorm Light Thunderstorms and Rain
8:15 PM 65.8 °F 60.3 °F 82% 30.12 in 10.0 mi Calm Calm - N/A   Overcast
8:35 PM 65.7 °F 61.2 °F 85% 30.12 in 10.0 mi Calm Calm - N/A   Scattered Clouds
8:55 PM 65.3 °F 60.8 °F 85% 30.13 in 10.0 mi SE 4.6 mph - N/A   Clear
9:15 PM 67.1 °F 58.6 °F 74% 30.12 in 10.0 mi South 5.8 mph - N/A   Clear
9:35 PM 68.0 °F 57.4 °F 69% 30.12 in 10.0 mi South 3.5 mph - N/A   Clear
9:55 PM 68.2 °F 58.1 °F 70% 30.12 in 10.0 mi Calm Calm - N/A   Clear
10:15 PM 68.0 °F 58.8 °F 72% 30.13 in 10.0 mi Calm Calm - N/A   Clear
10:35 PM 65.1 °F 60.1 °F 84% 30.13 in 10.0 mi SSE 4.6 mph - N/A   Clear
10:55 PM 65.5 °F 59.9 °F 82% 30.13 in 10.0 mi SSE 4.6 mph - N/A   Clear
11:15 PM 65.8 °F 59.7 °F 81% 30.13 in 10.0 mi Calm Calm - N/A   Clear
11:35 PM 67.3 °F 61.3 °F 81% 30.12 in 10.0 mi Calm Calm - N/A   Clear
11:55 PM 66.2 °F 60.3 °F 81% 30.12 in 10.0 mi Calm Calm - N/A   Clear